Tracking 35280 objects as of 7-Sep-2026
HD Live streaming from Space Station
objects crossing your sky now

STARLINK-5756

Track STARLINK-5756 now!
10-day predictions
STARLINK-5756 is classified as:


NORAD ID: 55598
Int'l Code: 2023-020AF
Launch date: February 12, 2023
Source: United States (US)
Launch site: AIR FORCE EASTERN TEST RANGE (AFETR)
Your satellite tracking list
Your tracking list is empty




NASA's NSSDC Master Catalog

Two Line Element Set (TLE):
1 55598U 23020AF  26250.17690514  .00001990  00000-0  81808-4 0  9995
2 55598  43.0026  49.4184 0002048 270.6509  89.4108 15.27581380196794
Source of the keplerian elements: AFSPC